Tracking 18987 objects as of 24-Feb-2018
HD Live streaming from Space Station
objects crossing your sky now

COSMOS 1629

Track COSMOS 1629 now!
COSMOS 1629 is classified as:


NORAD ID: 15574
Int'l Code: 1985-016A
Perigee: 35,771.0 km
Apogee: 35,796.0 km
Inclination: 14.0 °
Period: 1,435.6 minutes
Semi major axis: 42154 km
RCS: 1.2589 m2 (large)
Launch date: February 21, 1985
Source: Commonwealth of Independent States (former USSR) (CIS)
Launch site: TYURATAM MISSILE AND SPACE COMPLEX (TTMTR)
aabbcc
Your satellite tracking list
Your tracking list is empty




NASA's NSSDC Master Catalog

Two Line Element Set (TLE):
1 15574U 85016A   18054.52451094 +.00000078 +00000-0 +00000-0 0  9995
2 15574 014.0327 341.3244 0002972 223.4332 327.1312 01.00308314120014
Source of the keplerian elements: AFSPC